Regional Weather Roundup
Issued by NWS

Home | Current Version | Previous Version | Graphics & Text | Print | Product List | Glossary Off
Versions: 1 2 3 4 5 6 7 8 9 10 11 12 13 14 15 16 17 18 19 20 21 22 23 24 25 26 27 28 29 30 31 32 33 34 35 36 37 38 39 40 41 42 43 44 45 46 47 48 49 50

000
ASUS43 KDTX 011410
RWRMI
MICHIGAN HOURLY REGIONAL WEATHER ROUNDUP
NATIONAL WEATHER SERVICE DETROIT/PONTIAC MI
1000 AM EDT SAT AUG 01 2015

NOTE: "FAIR" INDICATES FEW OR NO CLOUDS BELOW 12,000 FEET WITH NO
SIGNIFICANT WEATHER AND/OR OBSTRUCTION TO VISIBILITY.

MIZ047>049-052>055-059>063-066>070-074>076-081>083-011500-
SOUTHEAST LOWER MICHIGAN

CITY           SKY/WX    TMP DP  RH WIND       PRES   REMARKS
ADRIAN         SUNNY     73  59  61 NW9       29.96S
ALMA           MOSUNNY   73  58  60 W7        29.92F
ANN ARBOR      SUNNY     73  59  61 NW7       29.94S
BAD AXE        SUNNY     70  61  73 W8        29.90S
DETROIT CITY   SUNNY     74  55  51 NW5       29.93S
DETROIT        MOSUNNY   75  58  55 W7        29.94S
FLINT          SUNNY     74  58  57 W9        29.93S
GROSSE ILE     SUNNY     73  59  60 W6        29.93S
HILLSDALE      SUNNY     73  59  62 W5        29.98S
HOWELL         SUNNY     72  58  62 W7        29.95S

CITY           SKY/WX    TMP DP  RH WIND       PRES   REMARKS
JACKSON        SUNNY     72  59  63 W5        29.97R
LAMBERTVILLE   SUNNY     73  60  64 W3        29.95F
LANSING        SUNNY     73  57  57 W9        29.95S
LAPEER         NOT AVBL
MASON          SUNNY     70  57  65 W5        29.96S
MONROE         SUNNY     73  60  65 NW7       29.93F
MT. CLEMENS    SUNNY     74  57  55 NW6       29.90S
PONTIAC        MOSUNNY   73  57  57 W9        29.93S
PORT HOPE        N/A     71  61  70 W7        29.86S
PORT HURON     SUNNY     72  59  64 W6        29.91S
TRI CITIES     SUNNY     72  58  61 W10       29.91S
YPSILANTI      SUNNY     77  59  53 W9        29.94S
$$
MIZ043>046-050>051-056>058-064>065-071>073-077>080-011500-
SOUTHWEST LOWER MICHIGAN

CITY           SKY/WX    TMP DP  RH WIND       PRES   REMARKS
BATTLE CREEK   SUNNY     74  60  61 W12       29.98R
BENTON HARBOR  SUNNY     75  62  64 W12       29.98R
BIG RAPIDS     SUNNY     71  60  67 NW6       29.92R
COLDWATER      SUNNY     73  58  59 W6        29.98S
HOLLAND        SUNNY     75  60  59 VRB7      29.96S
GRAND RAPIDS   MOSUNNY   75  59  57 W10       29.95R
KALAMAZOO      MOSUNNY   75  58  55 W10       29.97S
MARSHALL       SUNNY     73  60  64 W6        29.97S
MUSKEGON       MOSUNNY   75  58  55 W10       29.94S
$$
MIZ016>042-011500-
NORTHERN LOWER MICHIGAN

CITY           SKY/WX    TMP DP  RH WIND       PRES   REMARKS
ALPENA         MOSUNNY   70  59  68 W8        29.85F
BEAVER ISLAND  MOSUNNY   68  56  66 NW6       29.86S
BELLAIRE       MOSUNNY   70  58  64 W3        29.88S
CADILLAC       MOSUNNY   71  58  62 W10       29.91R
CHARLEVOIX     MOSUNNY   70  60  71 W6        29.90R
FRANKFORT      PTSUNNY   71  61  72 W7        29.90R
GAYLORD        SUNNY     68  57  68 W8        29.88S
GRAYLING       PTSUNNY   69  59  70 W8        29.89F
HARBOR SPRINGS MOSUNNY   69  60  72 SW6       29.86S
HOUGHTON LAKE  PTSUNNY   68  58  70 W9        29.91R
MANISTEE       MOSUNNY   66  59  77 W9        29.92R
OSCODA         SUNNY     72  58  61 W6        29.86S
PELLSTON       MOSUNNY   69  57  65 NW9       29.86S
TRAVERSE CITY  MOSUNNY   74  59  59 NW10      29.86S
$$
MIZ007>008-015-011500-
EASTERN UPPER MICHIGAN

CITY           SKY/WX    TMP DP  RH WIND       PRES   REMARKS
KINROSS        MOSUNNY   64  57  77 W6        29.84S
MACKINAC ISLAN PTSUNNY   66  56  70 W3        29.84S
NEWBERRY       MOSUNNY   64  57  79 W7        29.84S
S. S. MARIE    MOSUNNY   63  57  81 NW7       29.83
$$
MIZ004>006-011>014-085-011500-
CENTRAL UPPER MICHIGAN

CITY           SKY/WX    TMP DP  RH WIND       PRES   REMARKS
MANISTIQUE     SUNNY     70  55  60 NW7       29.85R
ESCANABA       SUNNY     70  55  60 NW12      29.86R
MENOMINEE      SUNNY     66  54  63 W6        29.88S
SAWYER-GWINN   SUNNY     68  55  64 NW8       29.87S
$$
MIZ001>003-009>011-084-011500-
WESTERN UPPER MICHIGAN

CITY           SKY/WX    TMP DP  RH WIND       PRES   REMARKS
IRON MOUNTAIN  SUNNY     67  54  63 NW12      29.89R
HOUGHTON       SUNNY     65  55  70 W15       29.87R
COPPER HARBOR    N/A     68  55  63 N15G23    29.83R
IRONWOOD       SUNNY     64  55  72 W9        29.90S
$$

ABBREVIATIONS USED IN REMARKS
   TC - TEMPERATURE IN CELSIUS
  WCI - WIND CHILL INDEX
   HX - HEAT INDEX
  VSB - VISIBILITY




USA.gov is the U.S. government's official web portal to all federal, state and local government web resources and services.